Regional Weather Roundup
Issued by NWS Kansas City/Pleasant Hill, MO

Home | Current Version | Previous Version | Graphics & Text | Print | Product List | Glossary Off
Versions: 1 2 3 4 5 6 7 8 9 10 11 12 13 14 15 16 17 18 19 20 21 22 23 24 25 26 27 28 29 30 31 32 33 34 35 36 37 38 39 40 41 42 43 44 45 46 47 48 49 50

000
ASUS43 KEAX 210910
RWREAX

WEATHER ROUNDUP FOR EASTERN KANSAS AND NORTHWEST MISSOURI
NATIONAL WEATHER SERVICE KANSAS CITY/PLEASANT HILL MO
400 AM CDT MON AUG 21 2017

KSZ040-057-103>105-MOZ028-029-037-043-211000-
...KANSAS CITY METROPOLITAN AREA...

CITY           SKY/WX    TMP DP  RH WIND       PRES   REMARKS
K.C. INTL      CLEAR     74  69  85 S9        29.99S
K.C. DOWNTOWN  PTCLDY    79  69  71 S9        29.98S
LEES SUMMIT    CLEAR     76  67  73 SW12      30.01S
OLATHE - IXD   CLEAR     72  68  87 S7        30.01R
OLATHE - OJC   CLEAR     73  68  84 S7        30.01R
LAWRENCE       CLEAR     75  71  87 S7        29.98F

$$

MOZ001>008-011>017-020>025-030>033-038>040-044>046-053-054-211000-
...NORTHERN AND CENTRAL MISSOURI...

CITY           SKY/WX    TMP DP  RH WIND       PRES   REMARKS
ST. JOSEPH     CLEAR     73  71  93 S5        29.99R
MOSBY          SUNNY     72  64  78 SE3       29.99S
WARRENSBURG    PTCLDY    68  64  88 SE7       30.02R
WHITEMAN AFB   MOCLDY    70  70  99 S7        30.03R
CLINTON        CLEAR     68  66  94 CALM      30.04S
SEDALIA        CLEAR     74  66  76 S9        30.05R
WARSAW         NOT AVBL
CHILLICOTHE      N/A     70  68  93 SE3       30.01S
KIRKSVILLE     CLOUDY    68  67  96 S5        30.03S

$$

MOZ041-047>049-056>058-063>065-088>090-097-211000-
...EASTERN AND SOUTHERN MISSOURI...

CITY           SKY/WX    TMP DP  RH WIND       PRES   REMARKS
ST. LOUIS INTL PTCLDY    78  74  87 S6        30.06S
SPIRIT OF STL  CLEAR     75  73  93 NW3       30.04S
COLUMBIA       PTCLDY    69  69 100 S7        30.06R
JEFFERSON CITY CLEAR     72  72 100 CALM      30.04R
ROLLA          CLEAR     73  71  93 S8        30.09R
OSAGE BEACH    CLEAR     72  68  87 S6        30.07R
SPRINGFIELD    CLOUDY    71  70  96 S9        30.07R
BRANSON        CLEAR     77  73  88 S3        30.09S
JOPLIN         PTCLDY    77  73  87 S8        30.04F
WEST PLAINS    CLEAR     73  70  90 NE3       30.11S

$$

IAZ060-094-KSZ022-034>040-054-083-096-NEZ052-066-093-211000-
...KANSAS...SOUTHEAST NEBRASKA AND IOWA...

CITY           SKY/WX    TMP DP  RH WIND       PRES   REMARKS
TOPEKA         CLEAR     77  74  90 S6        29.97S
MANHATTAN      CLEAR     77  73  87 SW7       29.96R
EMPORIA        PTCLDY    75  72  90 S12       29.99F
CHANUTE        PTCLDY    74  72  93 SE6       30.02S
WICHITA        CLOUDY    77  73  87 S6        30.01R
OMAHA          CLOUDY    71  62  73 E20G30    30.01S
LINCOLN        CLEAR     77  71  82 S7        29.93R
FALLS CITY     CLEAR     79  72  79 S8        29.94R
LAMONI         CLOUDY    70  66  87 S6        30.00R
DES MOINES     TSTM      68  66  93 N9        30.08R

$$




USA.gov is the U.S. government's official web portal to all federal, state and local government web resources and services.